FW7023 Weather Reports


Display with metric or nautical units.
time (UTC)temp
F
wind
direction
speed
MPH
gust
MPH
rain 1hr
in
rain 24hr
in
rain mn
in
humidity
%
barometer
mb
20260903200242 97 215 4.0 7.0 0.00 0.00 0.00 41 1011.0
20260903195737 97 149 4.0 5.0 0.00 0.00 0.00 41 1011.1
20260903195234 97 220 10.0 14.0 0.00 0.00 0.00 40 1011.0
20260903194733 97 196 1.0 1.0 0.00 0.00 0.00 42 1011.1
20260903194229 98 208 9.0 11.0 0.00 0.00 0.00 41 1011.3
20260903193725 98 303 1.0 2.0 0.00 0.00 0.00 41 1011.2
20260903193220 97 207 1.0 2.0 0.00 0.00 0.00 42 1011.0
20260903192716 97 191 4.0 6.0 0.00 0.00 0.00 42 1011.3
20260903192211 96 156 3.0 3.0 0.00 0.00 0.00 42 1011.3
20260903191708 96 214 4.0 5.0 0.00 0.00 0.00 43 1011.2
20260903191202 96 209 4.0 6.0 0.00 0.00 0.00 43 1011.4
20260903190656 96 222 8.0 9.0 0.00 0.00 0.00 43 1011.5
20260903190151 96 207 2.0 5.0 0.00 0.00 0.00 44 1011.5
20260903185646 97 228 4.0 6.0 0.00 0.00 0.00 43 1011.5
20260903185141 97 219 3.0 3.0 0.00 0.00 0.00 42 1011.7
20260903184638 96 242 1.0 2.0 0.00 0.00 0.00 43 1011.9
20260903184133 98 196 6.0 8.0 0.00 0.00 0.00 42 1011.7
20260903183632 97 214 6.0 9.0 0.00 0.00 0.00 43 1011.8
20260903183127 96 161 2.0 3.0 0.00 0.00 0.00 44 1011.7
20260903182626 95 199 4.0 6.0 0.00 0.00 0.00 46 1011.9
20260903182122 95 215 4.0 5.0 0.00 0.00 0.00 46 1012.0
20260903181620 95 196 2.0 3.0 0.00 0.00 0.00 46 1012.0
20260903181115 95 198 3.0 5.0 0.00 0.00 0.00 46 1012.3
20260903180610 96 206 4.0 6.0 0.00 0.00 0.00 45 1012.1
20260903180104 94 198 1.0 2.0 0.00 0.00 0.00 48 1012.3
20260903175603 94 219 4.0 6.0 0.00 0.00 0.00 47 1012.3
20260903175103 95 208 5.0 8.0 0.00 0.00 0.00 46 1012.3
20260903174558 94 172 1.0 2.0 0.00 0.00 0.00 48 1012.3
20260903174053 94 209 8.0 9.0 0.00 0.00 0.00 48 1012.7
20260903173548 95 205 5.0 7.0 0.00 0.00 0.00 47 1012.5
20260903173045 94 35 1.0 1.0 0.00 0.00 0.00 47 1012.6
20260903172544 95 196 5.0 7.0 0.00 0.00 0.00 47 1012.7
20260903172040 95 197 4.0 5.0 0.00 0.00 0.00 46 1012.8
20260903171535 94 203 0.0 0.0 0.00 0.00 0.00 47 1012.9
20260903171030 94 230 5.0 6.0 0.00 0.00 0.00 47 1012.9
20260903170523 94 171 0.0 1.0 0.00 0.00 0.00 48 1013.1
20260903170020 93 191 5.0 6.0 0.00 0.00 0.00 48 1012.9
20260903165517 93 209 2.0 2.0 0.00 0.00 0.00 49 1013.1
20260903165013 93 209 3.0 6.0 0.00 0.00 0.00 48 1013.0
20260903164513 93 196 3.0 3.0 0.00 0.00 0.00 50 1013.0
20260903164008 94 142 2.0 2.0 0.00 0.00 0.00 50 1013.0
20260903163503 94 153 4.0 6.0 0.00 0.00 0.00 48 1013.1
20260903162959 93 244 5.0 7.0 0.00 0.00 0.00 49 1013.2
20260903162455 93 260 3.0 6.0 0.00 0.00 0.00 48 1013.2
20260903161950 93 34 1.0 2.0 0.00 0.00 0.00 50 1013.2
20260903161445 93 179 3.0 5.0 0.00 0.00 0.00 50 1013.1
20260903160942 92 150 0.0 0.0 0.00 0.00 0.00 52 1013.5
20260903160440 92 205 2.0 3.0 0.00 0.00 0.00 51 1013.3
20260903155939 92 171 3.0 3.0 0.00 0.00 0.00 52 1013.3
20260903155433 92 200 3.0 3.0 0.00 0.00 0.00 53 1013.2
20260903154930 91 197 4.0 5.0 0.00 0.00 0.00 53 1013.1
20260903154426 91 175 3.0 5.0 0.00 0.00 0.00 54 1013.2
20260903153921 91 212 4.0 5.0 0.00 0.00 0.00 54 1013.3
20260903153416 90 155 2.0 2.0 0.00 0.00 0.00 56 1013.1
20260903152912 90 212 5.0 8.0 0.00 0.00 0.00 55 1013.3
20260903152408 90 175 2.0 2.0 0.00 0.00 0.00 55 1013.3
20260903151909 90 224 3.0 3.0 0.00 0.00 0.00 54 1013.3
20260903151403 88 182 0.0 1.0 0.00 0.00 0.00 57 1013.2
20260903150858 88 214 5.0 7.0 0.00 0.00 0.00 58 1013.4
20260903150353 87 189 3.0 5.0 0.00 0.00 0.00 58 1013.3
20260903145848 87 226 6.0 7.0 0.00 0.00 0.00 58 1013.3
20260903145343 87 207 4.0 6.0 0.00 0.00 0.00 58 1013.2
20260903144842 87 120 3.0 3.0 0.00 0.00 0.00 59 1013.2
20260903144337 86 162 1.0 2.0 0.00 0.00 0.00 60 1013.4
20260903143833 86 222 8.0 11.0 0.00 0.00 0.00 60 1013.2
20260903143329 86 184 3.0 5.0 0.00 0.00 0.00 61 1013.3
20260903142825 86 228 6.0 8.0 0.00 0.00 0.00 61 1013.5
20260903142321 85 193 3.0 5.0 0.00 0.00 0.00 62 1013.5
20260903141816 85 141 2.0 3.0 0.00 0.00 0.00 63 1013.3
20260903141312 85 165 3.0 3.0 0.00 0.00 0.00 63 1013.5
20260903140812 84 164 0.0 1.0 0.00 0.00 0.00 64 1013.3
20260903140307 83 207 2.0 3.0 0.00 0.00 0.00 65 1013.6
20260903135803 83 147 1.0 1.0 0.00 0.00 0.00 67 1013.5
20260903135258 82 171 1.0 1.0 0.00 0.00 0.00 67 1013.6
20260903134757 82 207 1.0 2.0 0.00 0.00 0.00 68 1013.4
20260903134253 82 141 1.0 2.0 0.00 0.00 0.00 68 1013.6
20260903133750 81 204 3.0 3.0 0.00 0.00 0.00 69 1013.6
20260903133246 81 189 1.0 2.0 0.00 0.00 0.00 70 1013.5
20260903132740 80 150 1.0 1.0 0.00 0.00 0.00 70 1013.5
20260903132235 80 173 2.0 2.0 0.00 0.00 0.00 70 1013.4
20260903131731 80 147 0.0 0.0 0.00 0.00 0.00 71 1013.4
20260903131230 80 178 0.0 1.0 0.00 0.00 0.00 71 1013.4
20260903130725 79 158 0.0 0.0 0.00 0.00 0.00 72 1013.4
20260903130220 79 173 1.0 1.0 0.00 0.00 0.00 72 1013.4
20260903125718 78 192 1.0 2.0 0.00 0.00 0.00 73 1013.4
20260903125214 78 187 1.0 2.0 0.00 0.00 0.00 74 1013.2
20260903124713 77 165 0.0 1.0 0.00 0.00 0.00 77 1013.4
20260903124209 77 157 0.0 0.0 0.00 0.00 0.00 78 1013.4
20260903123707 76 162 0.0 0.0 0.00 0.00 0.00 77 1013.4
20260903123206 76 166 0.0 0.0 0.00 0.00 0.00 77 1013.2
20260903122705 76 156 0.0 0.0 0.00 0.00 0.00 78 1013.1
20260903122200 76 157 0.0 0.0 0.00 0.00 0.00 78 1013.3
20260903121659 75 158 0.0 0.0 0.00 0.00 0.00 79 1013.2
20260903121155 75 153 0.0 0.0 0.00 0.00 0.00 81 1013.2
20260903120654 75 151 0.0 1.0 0.00 0.00 0.00 80 1013.1
20260903120148 75 160 0.0 0.0 0.00 0.00 0.00 81 1013.1
20260903115647 75 163 0.0 0.0 0.00 0.00 0.00 81 1012.8
20260903115143 75 159 0.0 0.0 0.00 0.00 0.00 82 1013.0
20260903114637 75 157 0.0 0.0 0.00 0.00 0.00 81 1013.0
20260903114133 75 162 0.0 0.0 0.00 0.00 0.00 80 1012.9
20260903113628 76 155 0.0 0.0 0.00 0.00 0.00 80 1012.9
20260903113124 77 155 0.0 0.0 0.00 0.00 0.00 79 1012.8
20260903112620 77 160 0.0 0.0 0.00 0.00 0.00 77 1012.7
20260903112120 77 161 0.0 0.0 0.00 0.00 0.00 74 1012.7
20260903111619 77 152 0.0 0.0 0.00 0.00 0.00 74 1012.8
20260903111115 77 165 0.0 0.0 0.00 0.00 0.00 73 1012.7
20260903110611 77 163 0.0 0.0 0.00 0.00 0.00 74 1012.6
20260903110106 77 161 0.0 0.0 0.00 0.00 0.00 75 1012.9
20260903105601 77 162 0.0 0.0 0.00 0.00 0.00 75 1012.5
20260903105055 77 160 0.0 0.0 0.00 0.00 0.00 75 1012.4
20260903104549 78 155 0.0 0.0 0.00 0.00 0.00 73 1012.5
20260903104045 79 157 0.0 0.0 0.00 0.00 0.00 71 1012.6
20260903103541 80 160 0.0 0.0 0.00 0.00 0.00 69 1012.3
20260903103037 80 167 0.0 0.0 0.00 0.00 0.00 68 1012.5
20260903102532 80 169 0.0 0.0 0.00 0.00 0.00 67 1012.4
20260903102031 81 155 0.0 0.0 0.00 0.00 0.00 67 1012.3
20260903101526 81 169 1.0 2.0 0.00 0.00 0.00 66 1012.3
20260903101022 81 206 1.0 1.0 0.00 0.00 0.00 65 1012.4
20260903100516 81 229 0.0 0.0 0.00 0.00 0.00 64 1012.3
20260903100015 82 198 2.0 2.0 0.00 0.00 0.00 65 1012.2
20260903095513 82 164 0.0 0.0 0.00 0.00 0.00 64 1012.1
20260903095009 82 189 2.0 2.0 0.00 0.00 0.00 64 1012.2
20260903094503 82 200 1.0 1.0 0.00 0.00 0.00 64 1012.1
20260903093959 82 178 1.0 1.0 0.00 0.00 0.00 64 1012.2
20260903093459 81 170 0.0 1.0 0.00 0.00 0.00 65 1012.0
20260903092954 80 170 1.0 2.0 0.00 0.00 0.00 68 1012.1
20260903092454 77 192 2.0 3.0 0.00 0.00 0.00 73 1012.0
20260903091954 76 169 0.0 1.0 0.00 0.00 0.00 76 1012.3
20260903091451 76 147 0.0 0.0 0.00 0.00 0.00 80 1012.1
20260903090947 77 162 0.0 0.0 0.00 0.00 0.00 81 1012.4
20260903090443 77 144 0.0 1.0 0.00 0.00 0.00 80 1012.5
20260903085941 78 151 0.0 0.0 0.00 0.00 0.00 78 1012.2
20260903085439 78 159 0.0 0.0 0.00 0.00 0.00 75 1012.2
20260903084940 77 167 0.0 0.0 0.00 0.00 0.00 75 1012.2
20260903084438 76 173 0.0 0.0 0.00 0.00 0.00 76 1012.1
20260903083933 75 160 0.0 0.0 0.00 0.00 0.00 83 1012.1
20260903083429 74 162 0.0 0.0 0.00 0.00 0.00 86 1012.2
20260903082928 74 162 0.0 0.0 0.00 0.00 0.00 87 1012.2
20260903082423 74 169 0.0 0.0 0.00 0.00 0.00 87 1012.4
20260903081919 75 162 0.0 0.0 0.00 0.00 0.00 87 1012.1
20260903081414 75 155 0.0 0.0 0.00 0.00 0.00 87 1012.3
20260903080910 74 154 0.0 1.0 0.00 0.00 0.00 87 1012.2
20260903080406 74 158 0.0 0.0 0.00 0.00 0.00 87 1012.3
20260903075901 74 158 0.0 0.0 0.00 0.00 0.00 87 1012.2
20260903075356 74 162 0.0 0.0 0.00 0.00 0.00 87 1012.0
20260903074851 74 162 0.0 0.0 0.00 0.00 0.00 88 1012.1
20260903074351 74 159 0.0 0.0 0.00 0.00 0.00 88 1012.3
20260903073846 75 154 0.0 0.0 0.00 0.00 0.00 88 1012.2
20260903073341 75 157 0.0 0.0 0.00 0.00 0.00 88 1012.3
20260903072837 75 161 0.0 0.0 0.00 0.00 0.00 87 1012.2
20260903072333 75 157 0.0 0.0 0.00 0.00 0.00 87 1012.0
20260903071830 75 160 0.0 0.0 0.00 0.00 0.00 87 1012.1
20260903071325 75 155 0.0 0.0 0.00 0.00 0.00 87 1012.2
20260903070820 75 165 0.0 0.0 0.00 0.00 0.00 87 1012.3
20260903070315 76 159 0.0 0.0 0.00 0.00 0.00 86 1012.3
20260903065810 76 159 0.0 0.0 0.00 0.00 0.00 87 1012.5
20260903065309 75 149 0.0 0.0 0.00 0.00 0.00 87 1012.2
20260903064808 75 164 0.0 0.0 0.00 0.00 0.00 87 1012.4
20260903064259 76 159 0.0 0.0 0.00 0.00 0.00 86 1012.3
20260903063755 76 159 0.0 0.0 0.00 0.00 0.00 86 1012.2
20260903063255 76 159 0.0 0.0 0.00 0.00 0.00 86 1012.3
20260903062751 76 159 0.0 0.0 0.00 0.00 0.00 86 1012.2
20260903062250 76 157 0.0 0.0 0.00 0.00 0.00 85 1012.4
20260903061747 77 157 0.0 0.0 0.00 0.00 0.00 85 1012.1
20260903061245 76 159 0.0 0.0 0.00 0.00 0.00 86 1012.1
20260903060742 76 155 0.0 0.0 0.00 0.00 0.00 85 1012.1
20260903060241 77 155 0.0 0.0 0.00 0.00 0.00 85 1012.2
20260903055739 77 154 0.0 0.0 0.00 0.00 0.00 84 1012.1
20260903055237 77 155 0.0 0.0 0.00 0.00 0.00 84 1012.0
20260903054733 77 163 0.0 0.0 0.00 0.00 0.00 84 1012.3
20260903054228 77 162 0.0 0.0 0.00 0.00 0.00 83 1012.2
20260903053725 78 177 0.0 0.0 0.00 0.00 0.00 83 1012.3
20260903053224 78 162 0.0 0.0 0.00 0.00 0.00 83 1012.2
20260903052720 77 154 0.0 0.0 0.00 0.00 0.00 83 1012.1
20260903052216 78 156 0.0 0.0 0.00 0.00 0.00 83 1012.1
20260903051710 78 164 0.0 0.0 0.00 0.00 0.00 82 1012.1
20260903051206 78 162 0.0 0.0 0.00 0.00 0.00 82 1012.1
20260903050702 78 160 0.0 0.0 0.00 0.00 0.00 82 1012.1
20260903050200 78 160 0.0 0.0 0.00 0.00 0.00 81 1011.9
20260903045655 78 160 0.0 0.0 0.00 0.00 0.00 81 1012.1
20260903045152 78 157 0.0 0.0 0.00 0.00 0.00 81 1012.1
20260903044647 78 164 0.0 0.0 0.00 0.00 0.00 81 1012.0
20260903044137 79 155 0.0 0.0 0.00 0.00 0.00 80 1011.9
20260903043634 79 164 0.0 0.0 0.00 0.00 0.00 80 1012.1
20260903043133 79 160 0.0 0.0 0.00 0.00 0.00 79 1012.1
20260903042632 79 159 0.0 0.0 0.00 0.00 0.00 78 1012.0
20260903042127 80 158 0.0 0.0 0.00 0.00 0.00 78 1012.1
20260903041624 80 155 0.0 0.0 0.00 0.00 0.00 78 1012.1
20260903041120 80 160 0.0 0.0 0.00 0.00 0.00 78 1012.1
20260903040618 80 159 0.0 0.0 0.00 0.00 0.00 78 1012.1
20260903040109 80 161 0.0 0.0 0.00 0.00 0.00 77 1012.1
20260903035604 80 167 0.0 0.0 0.00 0.00 0.00 77 1012.4
20260903035100 80 170 0.0 0.0 0.00 0.00 0.00 77 1012.1
20260903034555 80 161 0.0 0.0 0.00 0.00 0.00 77 1012.3
20260903034050 81 172 0.0 0.0 0.00 0.00 0.00 76 1012.2
20260903033545 81 161 0.0 0.0 0.00 0.00 0.00 75 1012.1
20260903033040 81 157 0.0 0.0 0.00 0.00 0.00 75 1012.1
20260903032535 81 161 0.0 0.0 0.00 0.00 0.00 75 1012.3
20260903032031 81 158 0.0 0.0 0.00 0.00 0.00 73 1012.0
20260903031530 81 164 0.0 0.0 0.00 0.00 0.00 70 1012.1
20260903031026 82 167 0.0 0.0 0.00 0.00 0.00 70 1012.2
20260903030521 82 163 0.0 0.0 0.00 0.00 0.00 69 1012.2
20260903030017 82 163 0.0 0.0 0.00 0.00 0.00 69 1012.3
20260903025512 82 165 0.0 0.0 0.00 0.00 0.00 72 1011.9
20260903025008 83 166 0.0 0.0 0.00 0.00 0.00 70 1012.3
20260903024507 83 162 0.0 0.0 0.00 0.00 0.00 71 1012.3
20260903024002 83 162 0.0 0.0 0.00 0.00 0.00 70 1012.4
20260903023458 84 161 0.0 0.0 0.00 0.00 0.00 70 1012.0
20260903022953 84 162 0.0 0.0 0.00 0.00 0.00 69 1011.8
20260903022452 84 162 0.0 0.0 0.00 0.00 0.00 67 1012.1
20260903021949 84 163 0.0 0.0 0.00 0.00 0.00 66 1012.0
20260903021445 84 164 0.0 0.0 0.00 0.00 0.00 65 1012.1
20260903020941 84 168 0.0 0.0 0.00 0.00 0.00 65 1011.9
20260903020436 85 168 0.0 0.0 0.00 0.00 0.00 64 1011.8
20260903015930 85 170 0.0 0.0 0.00 0.00 0.00 64 1011.7
20260903015426 85 170 0.0 0.0 0.00 0.00 0.00 63 1011.5
20260903014921 85 169 0.0 0.0 0.00 0.00 0.00 63 1011.6
20260903014421 86 169 0.0 0.0 0.00 0.00 0.00 62 1011.7
20260903013916 86 169 0.0 0.0 0.00 0.00 0.00 62 1011.3
20260903013416 86 169 0.0 0.0 0.00 0.00 0.00 62 1011.3
20260903012915 86 172 0.0 0.0 0.00 0.00 0.00 61 1011.5
20260903012414 87 167 0.0 0.0 0.00 0.00 0.00 61 1011.5
20260903011913 87 168 0.0 0.0 0.00 0.00 0.00 60 1011.2
20260903011408 87 170 0.0 0.0 0.00 0.00 0.00 60 1011.2
20260903010903 87 170 0.0 0.0 0.00 0.00 0.00 59 1011.1
20260903010359 88 176 0.0 0.0 0.00 0.00 0.00 58 1011.1
20260903005856 88 175 1.0 1.0 0.00 0.00 0.00 58 1011.4
20260903005352 89 172 0.0 0.0 0.00 0.00 0.00 57 1011.2
20260903004848 90 167 0.0 0.0 0.00 0.00 0.00 56 1011.3
20260903004343 90 181 0.0 1.0 0.00 0.00 0.00 54 1011.1
20260903003838 92 173 1.0 1.0 0.00 0.00 0.00 53 1010.9
20260903003333 93 167 0.0 0.0 0.00 0.00 0.00 49 1011.0
20260903002832 94 181 1.0 1.0 0.00 0.00 0.00 49 1011.0
20260903002327 94 165 0.0 0.0 0.00 0.00 0.00 45 1011.1
20260903001822 95 215 0.0 2.0 0.00 0.00 0.00 44 1011.1
20260903001318 95 181 0.0 0.0 0.00 0.00 0.00 43 1011.3
20260903000817 96 189 1.0 2.0 0.00 0.00 0.00 43 1011.1
20260903000312 96 155 0.0 0.0 0.00 0.00 0.00 42 1011.0
20260902235810 96 208 3.0 3.0 0.00 0.00 0.00 41 1010.7
20260902235300 97 169 0.0 0.0 0.00 0.00 0.00 40 1011.2
20260902234754 97 242 4.0 5.0 0.00 0.00 0.00 39 1011.1
20260902234253 97 214 3.0 3.0 0.00 0.00 0.00 39 1011.1
20260902233747 97 193 0.0 1.0 0.00 0.00 0.00 40 1011.2
20260902233242 97 213 3.0 3.0 0.00 0.00 0.00 39 1011.1
20260902232741 97 177 1.0 1.0 0.00 0.00 0.00 39 1011.2
20260902232241 98 214 7.0 8.0 0.00 0.00 0.00 38 1011.3
20260902231740 98 209 1.0 2.0 0.00 0.00 0.00 39 1011.2
20260902231236 99 211 2.0 2.0 0.00 0.00 0.00 37 1011.1
20260902230735 98 227 3.0 3.0 0.00 0.00 0.00 37 1011.1
20260902230234 98 177 0.0 1.0 0.00 0.00 0.00 38 1011.1
20260902225729 98 173 1.0 2.0 0.00 0.00 0.00 38 1011.1
20260902225224 99 227 2.0 3.0 0.00 0.00 0.00 38 1011.2
20260902224722 99 176 1.0 1.0 0.00 0.00 0.00 38 1011.2
20260902224218 99 172 0.0 0.0 0.00 0.00 0.00 38 1011.3
20260902223714 99 27 3.0 5.0 0.00 0.00 0.00 38 1011.2
20260902223213 99 212 3.0 5.0 0.00 0.00 0.00 37 1011.4
20260902222712 99 195 3.0 5.0 0.00 0.00 0.00 37 1011.3
20260902222207 100 196 2.0 5.0 0.00 0.00 0.00 38 1011.3
20260902221702 100 132 1.0 1.0 0.00 0.00 0.00 36 1011.2
20260902221201 100 216 3.0 5.0 0.00 0.00 0.00 36 1011.2
20260902220656 100 198 3.0 3.0 0.00 0.00 0.00 37 1011.1
20260902220151 100 225 2.0 3.0 0.00 0.00 0.00 36 1011.2
20260902215647 100 263 3.0 5.0 0.00 0.00 0.00 37 1011.3
20260902215142 100 167 3.0 3.0 0.00 0.00 0.00 36 1011.5
20260902214637 99 212 1.0 1.0 0.00 0.00 0.00 38 1011.5
20260902214136 98 217 3.0 3.0 0.00 0.00 0.00 39 1011.3
20260902213632 99 194 3.0 3.0 0.00 0.00 0.00 38 1011.5
20260902213131 99 187 3.0 3.0 0.00 0.00 0.00 38 1011.6
20260902212626 100 155 4.0 6.0 0.00 0.00 0.00 38 1011.7
20260902212122 100 227 4.0 6.0 0.00 0.00 0.00 38 1011.7
20260902211619 100 193 7.0 9.0 0.00 0.00 0.00 38 1011.8
20260902211114 100 213 5.0 6.0 0.00 0.00 0.00 38 1011.8
20260902210613 100 180 5.0 6.0 0.00 0.00 0.00 38 1011.8
20260902210108 100 197 4.0 6.0 0.00 0.00 0.00 37 1012.0
20260902205607 100 156 1.0 2.0 0.00 0.00 0.00 38 1012.1
20260902205103 99 166 1.0 1.0 0.00 0.00 0.00 39 1011.9
20260902204602 100 221 4.0 7.0 0.00 0.00 0.00 36 1012.1
20260902204057 100 160 4.0 5.0 0.00 0.00 0.00 37 1012.2
20260902203553 101 184 5.0 6.0 0.00 0.00 0.00 37 1012.4
20260902203052 101 188 2.0 2.0 0.00 0.00 0.00 36 1012.2
20260902202548 100 190 0.0 1.0 0.00 0.00 0.00 37 1012.3
20260902202044 100 198 5.0 6.0 0.00 0.00 0.00 37 1012.1
20260902201540 100 183 1.0 2.0 0.00 0.00 0.00 38 1012.4
20260902201039 100 274 1.0 1.0 0.00 0.00 0.00 39 1012.6